Data for 07/26/2017

Time Sea-Level Adjusted Pressure Absolute Pressure Temperature Relative Humidity Dew Point   
(mb) (inHg) (mb) (inHg) (C) (F) (%) (C) (F)
00:05 1022 30.18 851 25.13 17.7 63.8 50 7.1 44.8
00:10 1022 30.18 851 25.13 17.6 63.6 49 7 44.5
00:15 1022 30.18 851 25.13 17.9 64.1 48 6.9 44.4
00:20 1022 30.18 851 25.13 17.9 64.3 49 7.1 44.8
00:25 1022 30.18 851 25.13 17.8 64 49 7.1 44.7
00:30 1022 30.18 851 25.13 17.6 63.7 50 7.1 44.8
00:35 1022 30.18 851 25.13 17.5 63.4 50 7.1 44.8
00:40 1022 30.18 851 25.13 17.3 63.1 51 7.1 44.8
00:45 1022 30.18 851 25.13 17.2 63 51 7.2 45
00:50 1022 30.18 851 25.13 16.9 62.5 53 7.3 45.1
00:55 1022 30.18 851 25.13 16.8 62.2 53 7.3 45.2
01:00 1022 30.18 851 25.13 16.8 62.2 54 7.5 45.5
01:05 1022 30.18 851 25.13 16.6 61.9 55 7.6 45.8
01:10 1022 30.18 851 25.13 16.5 61.6 56 7.7 45.8
01:15 1022 30.18 851 25.13 16.5 61.8 54 7.2 44.9
01:20 1022 30.18 851 25.13 17.2 63 51 7.2 45
01:25 1022 30.18 851 25.13 17.4 63.2 51 7.3 45.2
01:30 1022 30.18 851 25.13 17.3 63.1 52 7.5 45.5
01:35 1022 30.18 851 25.13 17.2 62.9 52 7.4 45.4
01:40 1022 30.18 851 25.13 17.2 62.9 52 7.4 45.2
01:45 1022 30.18 851 25.13 17.1 62.8 53 7.6 45.7
01:50 1022 30.18 851 25.13 17 62.5 54 7.7 45.9
01:55 1022 30.18 851 25.13 16.7 62.1 55 7.9 46.2
02:00 1022 30.18 852 25.16 16.6 61.9 56 7.7 45.9
02:05 1022 30.18 852 25.16 16.6 61.8 56 7.7 45.9
02:10 1022 30.18 852 25.16 16.5 61.7 56 7.7 45.8
02:15 1022 30.18 852 25.16 16.5 61.7 56 7.7 45.9
02:20 1022 30.18 852 25.16 16.4 61.5 56 7.8 46.1
02:25 1022 30.18 852 25.16 16.5 61.7 56 7.7 45.9
02:30 1022 30.18 852 25.16 16.4 61.6 57 7.9 46.3
02:35 1022 30.18 852 25.16 16.3 61.3 57 7.9 46.2
02:40 1022 30.18 852 25.16 16.1 61 58 8 46.4
02:45 1022 30.18 852 25.16 15.9 60.7 59 8 46.3
02:50 1022 30.18 852 25.16 15.8 60.5 59 7.8 46
02:55 1023 30.21 852 25.16 16 60.7 58 7.8 46.1
03:00 1023 30.21 852 25.16 15.9 60.6 59 8 46.3
03:05 1023 30.21 852 25.16 15.7 60.3 59 7.9 46.2
03:10 1023 30.21 852 25.16 15.5 59.9 60 7.9 46.2
03:15 1023 30.21 852 25.16 15.3 59.5 61 7.9 46.2
03:20 1023 30.21 852 25.16 15.2 59.3 61 7.8 46
03:25 1023 30.21 852 25.16 15.1 59.2 61 7.7 45.9
03:30 1023 30.21 852 25.16 15.1 59.2 61 7.8 46
03:35 1023 30.21 852 25.16 14.9 58.8 62 7.7 45.9
03:40 1023 30.21 852 25.16 14.8 58.7 62 7.7 45.8
03:45 1023 30.21 852 25.16 14.8 58.7 62 7.7 45.9
03:50 1023 30.21 852 25.16 14.8 58.7 62 7.7 45.8
03:55 1023 30.21 852 25.16 14.5 58.2 62 7.5 45.6
04:00 1023 30.21 852 25.16 14.5 58.1 60 7 44.6
04:05 1023 30.21 852 25.16 14.8 58.7 61 7.3 45.2
04:10 1023 30.21 852 25.16 14.7 58.4 62 7.5 45.6
04:15 1023 30.21 852 25.16 14.5 58.1 63 7.6 45.6
04:20 1023 30.21 852 25.16 14.3 57.7 64 7.6 45.7
04:25 1023 30.21 852 25.16 14.3 57.8 64 7.6 45.7
04:30 1023 30.21 852 25.16 14.2 57.6 64 7.7 45.9
04:35 1023 30.21 852 25.16 14.2 57.6 64 7.7 45.8
04:40 1023 30.21 852 25.16 14.3 57.8 64 7.6 45.6
04:45 1023 30.21 852 25.16 14.7 58.4 62 7.6 45.7
04:50 1023 30.21 852 25.16 14.8 58.7 61 7.3 45.2
04:55 1023 30.21 852 25.16 14.6 58.3 62 7.5 45.5
05:00 1023 30.21 852 25.16 14.3 57.8 63 7.3 45.2
05:05 1023 30.21 852 25.16 14.4 58 63 7.4 45.4
05:10 1023 30.21 852 25.16 14.4 57.9 63 7.6 45.7
05:15 1023 30.21 852 25.16 14.2 57.5 65 7.7 45.8
05:20 1023 30.21 852 25.16 14.1 57.3 65 7.6 45.6
05:25 1023 30.21 852 25.16 14.2 57.6 64 7.7 45.8
05:30 1023 30.21 852 25.16 14.3 57.8 64 7.6 45.7
05:35 1023 30.21 853 25.19 14.4 58 63 7.6 45.7
05:40 1023 30.21 852 25.16 14.5 58 64 7.7 45.9
05:45 1023 30.21 853 25.19 14.6 58.3 64 7.8 46.1
05:50 1023 30.21 853 25.19 14.6 58.3 64 7.9 46.1
05:55 1023 30.21 853 25.19 14.7 58.4 63 7.8 46
06:00 1023 30.21 853 25.19 14.8 58.6 62 7.7 45.9
06:05 1023 30.21 853 25.19 14.9 58.8 62 7.7 45.9
06:10 1023 30.21 853 25.19 15 59 61 7.7 45.9
06:15 1023 30.21 853 25.19 14.9 58.9 62 7.8 46
06:20 1023 30.21 853 25.19 15 59 61 7.5 45.5
06:25 1024 30.24 853 25.19 15.2 59.3 60 7.6 45.6
06:30 1024 30.24 853 25.19 15.4 59.7 59 7.5 45.6
06:35 1024 30.24 853 25.19 15.6 60.1 60 8 46.3
06:40 1024 30.24 853 25.19 15.9 60.6 59 7.9 46.2
06:45 1024 30.24 853 25.19 16.3 61.4 58 8.2 46.8
06:50 1024 30.24 853 25.19 16.4 61.6 59 8.5 47.3
06:55 1024 30.24 853 25.19 16.6 61.9 58 8.3 47
07:00 1024 30.24 853 25.19 17 62.7 58 8.7 47.7
07:05 1024 30.24 853 25.19 17.6 63.6 56 8.7 47.6
07:10 1024 30.24 853 25.19 17.9 64.2 54 8.5 47.4
07:15 1024 30.24 853 25.19 17.9 64.1 55 8.8 47.9
07:20 1024 30.24 853 25.19 18.3 65 55 9.3 48.7
07:25 1024 30.24 853 25.19 18.6 65.5 52 8.8 47.8
07:30 1024 30.24 853 25.19 18.9 66 51 8.7 47.6
07:35 1024 30.24 853 25.19 19 66.3 51 8.9 48
07:40 1024 30.24 853 25.19 19.7 67.5 48 8.6 47.6
07:45 1024 30.24 853 25.19 20.2 68.4 48 8.9 48
07:50 1024 30.24 853 25.19 20.4 68.7 46 8.5 47.3
07:55 1024 30.24 853 25.19 20.5 68.9 44 8.1 46.6
08:00 1024 30.24 853 25.19 21 69.8 42 7.8 46.1
08:05 1024 30.24 853 25.19 21.5 70.7 41 7.7 45.9
08:10 1024 30.24 853 25.19 21.9 71.3 41 8.3 46.9
08:15 1024 30.24 853 25.19 22.1 71.8 40 8 46.4
08:20 1024 30.24 853 25.19 21.9 71.4 40 7.9 46.3
08:25 1024 30.24 853 25.19 21.7 71.1 41 7.9 46.3
08:30 1024 30.24 853 25.19 21.2 70.1 41 7.7 45.8
08:35 1024 30.24 853 25.19 21.4 70.6 42 8.1 46.6
08:40 1024 30.24 853 25.19 21.7 71 41 8 46.5
08:45 1024 30.24 853 25.19 21.7 71 41 8 46.4
08:50 1024 30.24 853 25.19 22 71.7 40 7.9 46.2
08:55 1024 30.24 853 25.19 22.2 72 39 8 46.4
09:00 1024 30.24 853 25.19 22.7 72.8 37 7.4 45.4
09:05 1024 30.24 853 25.19 23 73.4 39 8.4 47.1
09:10 1024 30.24 853 25.19 22.5 72.6 38 7.8 46
09:15 1024 30.24 853 25.19 22.7 72.9 37 7.6 45.6
09:20 1024 30.24 853 25.19 23.5 74.3 38 8.4 47.2
09:25 1024 30.24 853 25.19 23.5 74.2 38 8.5 47.3
09:30 1024 30.24 853 25.19 23 73.4 38 8.1 46.6
09:35 1024 30.24 853 25.19 23.3 73.9 39 8.7 47.6
09:40 1024 30.24 853 25.19 23.5 74.4 36 7.6 45.7
09:45 1024 30.24 853 25.19 24.2 75.6 35 7.9 46.3
09:50 1024 30.24 853 25.19 25.2 77.3 34 8.3 46.9
09:55 1024 30.24 853 25.19 24.6 76.2 35 8.2 46.7
10:00 1024 30.24 853 25.19 24 75.2 34 7.3 45.1
10:05 1024 30.24 853 25.19 25.1 77.1 33 7.8 46
10:10 1024 30.24 853 25.19 25.5 77.9 31 7.5 45.4
10:15 1024 30.24 853 25.19 25.3 77.5 34 8.6 47.5
10:20 1024 30.24 853 25.19 24.9 76.7 35 8.7 47.6
10:25 1023 30.21 853 25.19 25.3 77.5 34 8.5 47.3
10:30 1023 30.21 853 25.19 24.9 76.7 34 8 46.4
10:35 1023 30.21 853 25.19 25.1 77.2 33 8.1 46.7
10:40 1023 30.21 853 25.19 25.1 77.2 33 8 46.5
10:45 1023 30.21 852 25.16 25.5 77.8 33 8.1 46.6
10:50 1023 30.21 852 25.16 25 77 33 7.9 46.2
10:55 1023 30.21 852 25.16 24.9 76.8 32 7.4 45.4
11:00 1023 30.21 852 25.16 25.8 78.4 30 6.9 44.5
11:05 1023 30.21 852 25.16 26.2 79.1 30 7.4 45.3
11:10 1023 30.21 852 25.16 26.9 80.3 29 7.6 45.6
11:15 1023 30.21 852 25.16 26.8 80.3 29 7.6 45.8
11:20 1023 30.21 852 25.16 27.3 81.2 28 7.4 45.3
11:25 1023 30.21 852 25.16 27.5 81.5 28 7.6 45.7
11:30 1023 30.21 852 25.16 28 82.5 27 7.6 45.7
11:35 1023 30.21 852 25.16 27.2 81 28 7.6 45.7
11:40 1023 30.21 852 25.16 28 82.3 27 7.7 45.9
11:45 1023 30.21 852 25.16 28.7 83.6 25 6.9 44.5
11:50 1023 30.21 852 25.16 29.1 84.3 25 7.4 45.4
11:55 1023 30.21 852 25.16 29.3 84.7 25 7.5 45.6
12:00 1023 30.21 852 25.16 29.3 84.8 24 7 44.6
12:05 1023 30.21 852 25.16 30.2 86.3 24 7.5 45.6
12:10 1023 30.21 852 25.16 30.4 86.8 24 7.9 46.2
12:15 1023 30.21 852 25.16 29.9 85.7 22 6.3 43.3
12:20 1022 30.18 852 25.16 29.7 85.5 22 5.9 42.7
12:25 1022 30.18 852 25.16 30.1 86.2 22 6.7 44.1
12:30 1022 30.18 852 25.16 29.6 85.4 23 6.8 44.2
12:35 1022 30.18 852 25.16 29.2 84.6 24 6.8 44.2
12:40 1022 30.18 852 25.16 28.9 83.9 25 7.1 44.8
12:45 1022 30.18 851 25.13 29.4 84.8 23 6.7 44
12:50 1022 30.18 851 25.13 29.5 85 23 6.8 44.2
12:55 1022 30.18 851 25.13 29.3 84.7 22 5.7 42.3
13:00 1022 30.18 851 25.13 29.4 84.9 23 6.5 43.7
13:05 1022 30.18 851 25.13 30 85.9 23 7.1 44.8
13:10 1022 30.18 851 25.13 30 86 22 6.3 43.4
13:15 1022 30.18 851 25.13 29.6 85.2 22 5.8 42.4
13:20 1022 30.18 851 25.13 29.2 84.6 23 6.2 43.1
13:25 1022 30.18 851 25.13 29.1 84.3 22 5.3 41.6
13:30 1022 30.18 851 25.13 29 84.2 23 6.1 43.1
13:35 1022 30.18 851 25.13 28.6 83.4 22 5.1 41.2
13:40 1022 30.18 851 25.13 28.4 83 23 5.3 41.5
13:45 1022 30.18 851 25.13 27.8 82.1 23 5 41
13:50 1022 30.18 851 25.13 27.2 80.9 22 4.2 39.6
13:55 1022 30.18 852 25.16 26.9 80.4 25 5.6 42.2
14:00 1023 30.21 852 25.16 26.1 79.1 32 8.5 47.2
14:05 1023 30.21 852 25.16 24.3 75.8 35 8.1 46.6
14:10 1023 30.21 852 25.16 23.2 73.8 40 9.1 48.3
14:15 1023 30.21 852 25.16 22 71.7 44 9.3 48.7
14:20 1022 30.18 852 25.16 21.2 70.1 45 8.9 48.1
14:25 1023 30.21 852 25.16 20.8 69.5 45 8.5 47.3
14:30 1023 30.21 852 25.16 20.9 69.5 45 8.6 47.4
14:35 1023 30.21 852 25.16 20.6 69.1 45 8.4 47.1
14:40 1023 30.21 852 25.16 20.7 69.2 43 7.9 46.3
14:45 1023 30.21 852 25.16 20.8 69.4 43 7.9 46.3
14:50 1023 30.21 852 25.16 20.7 69.2 45 8.3 47
14:55 1022 30.18 852 25.16 20.5 68.8 45 8.4 47.1
15:00 1023 30.21 852 25.16 20 68 52 10.1 50.1
15:05 1023 30.21 852 25.16 19.4 66.8 51 9.2 48.5
15:10 1022 30.18 852 25.16 19.6 67.3 50 9.1 48.4
15:15 1023 30.21 852 25.16 19.6 67.2 52 9.5 49.1
15:20 1022 30.18 852 25.16 19.6 67.3 52 9.7 49.4
15:25 1023 30.21 852 25.16 19.7 67.5 52 9.6 49.3
15:30 1023 30.21 852 25.16 19.8 67.6 51 9.6 49.3
15:35 1023 30.21 852 25.16 20 67.9 51 9.8 49.6
15:40 1023 30.21 852 25.16 20 68.1 50 9.4 49
15:45 1023 30.21 852 25.16 20.3 68.5 48 9 48.2
15:50 1023 30.21 852 25.16 20.9 69.5 44 8.3 46.9
15:55 1023 30.21 852 25.16 21.8 71.2 39 7.4 45.4
16:00 1023 30.21 852 25.16 22.5 72.5 41 8.6 47.5
16:05 1023 30.21 852 25.16 23.2 73.8 38 8.1 46.6
16:10 1023 30.21 852 25.16 23.4 74.1 38 8.6 47.4
16:15 1023 30.21 852 25.16 23.6 74.5 37 8.1 46.6
16:20 1023 30.21 852 25.16 24 75.3 35 7.9 46.2
16:25 1023 30.21 852 25.16 23.7 74.7 34 7.3 45.2
16:30 1023 30.21 852 25.16 24.1 75.4 33 7.1 44.7
16:35 1023 30.21 852 25.16 23.8 74.8 34 7 44.6
16:40 1022 30.18 852 25.16 23.5 74.4 34 6.9 44.5
16:45 1022 30.18 852 25.16 23.3 74 34 6.8 44.2
16:50 1022 30.18 852 25.16 23.1 73.6 36 7.5 45.4
16:55 1022 30.18 852 25.16 22.9 73.2 38 7.9 46.2
17:00 1022 30.18 852 25.16 22.7 72.9 38 8 46.5
17:05 1022 30.18 852 25.16 22.7 72.8 38 8 46.4
17:10 1022 30.18 851 25.13 22.8 73.1 39 8.1 46.7
17:15 1022 30.18 851 25.13 22.7 72.9 39 8.3 46.9
17:20 1022 30.18 851 25.13 22.6 72.7 40 8.5 47.3
17:25 1022 30.18 851 25.13 22.4 72.4 41 8.8 47.8
17:30 1022 30.18 851 25.13 22.1 71.8 42 8.8 47.9
17:35 1022 30.18 851 25.13 22 71.6 42 8.7 47.6
17:40 1022 30.18 851 25.13 21.9 71.4 42 8.7 47.7
17:45 1022 30.18 851 25.13 21.8 71.3 42 8.6 47.5
17:50 1022 30.18 851 25.13 21.8 71.3 42 8.6 47.5
17:55 1022 30.18 851 25.13 21.9 71.3 43 8.7 47.7
18:00 1022 30.18 851 25.13 21.8 71.3 43 9 48.2
18:05 1022 30.18 852 25.16 21.8 71.2 44 9.1 48.3
18:10 1022 30.18 851 25.13 21.7 71 44 9.2 48.6
18:15 1022 30.18 851 25.13 21.5 70.7 46 9.7 49.4
18:20 1022 30.18 851 25.13 21.3 70.3 47 9.5 49.1
18:25 1022 30.18 852 25.16 21.3 70.3 46 9.5 49.1
18:30 1022 30.18 852 25.16 21.4 70.4 45 9.1 48.4
18:35 1022 30.18 852 25.16 21.5 70.6 44 8.8 47.9
18:40 1022 30.18 852 25.16 21.5 70.7 44 8.9 48
18:45 1022 30.18 852 25.16 21.4 70.5 45 9.2 48.5
18:50 1022 30.18 851 25.13 21.3 70.3 45 8.9 47.9
18:55 1022 30.18 852 25.16 21.3 70.3 45 8.9 48
19:00 1022 30.18 852 25.16 21.3 70.4 44 8.9 48
19:05 1022 30.18 852 25.16 21.3 70.3 46 9.3 48.7
19:10 1022 30.18 852 25.16 21.2 70.1 46 9.3 48.7
19:15 1023 30.21 852 25.16 21.2 70.2 45 8.9 48
19:20 1023 30.21 852 25.16 21.4 70.4 44 8.7 47.6
19:25 1022 30.18 852 25.16 21.4 70.5 44 8.8 47.9
19:30 1022 30.18 852 25.16 21.4 70.5 44 8.8 47.9
19:35 1022 30.18 852 25.16 21.3 70.4 44 8.8 47.9
19:40 1022 30.18 852 25.16 21.2 70.2 46 9.1 48.4
19:45 1022 30.18 852 25.16 21.1 69.9 46 9.3 48.7
19:50 1023 30.21 852 25.16 20.9 69.7 50 10.1 50.3
19:55 1023 30.21 852 25.16 20.5 68.9 58 12 53.5
20:00 1023 30.21 852 25.16 20 67.9 58 11.6 52.8
20:05 1023 30.21 852 25.16 20 68 57 11.2 52.2
20:10 1023 30.21 852 25.16 19.8 67.6 60 12 53.7
20:15 1023 30.21 852 25.16 19.3 66.8 62 11.9 53.5
20:20 1023 30.21 852 25.16 19.1 66.3 62 11.7 53
20:25 1023 30.21 852 25.16 19 66.2 62 11.7 53
20:30 1023 30.21 852 25.16 18.8 65.8 64 12 53.6
20:35 1023 30.21 852 25.16 18.4 65 66 11.9 53.5
20:40 1023 30.21 852 25.16 18.2 64.7 65 11.7 53
20:45 1023 30.21 852 25.16 18.3 64.9 63 11.3 52.3
20:50 1023 30.21 852 25.16 18.3 64.9 63 11.3 52.3
20:55 1023 30.21 852 25.16 18.3 64.9 62 11 51.9
21:00 1023 30.21 852 25.16 18.2 64.7 63 11 51.8
21:05 1023 30.21 852 25.16 18 64.5 63 10.9 51.6
21:10 1023 30.21 852 25.16 18 64.3 62 10.6 51.1
21:15 1023 30.21 852 25.16 18 64.4 62 10.7 51.3
21:20 1023 30.21 852 25.16 18 64.3 62 10.7 51.3
21:25 1023 30.21 852 25.16 17.9 64.1 62 10.5 50.9
21:30 1023 30.21 852 25.16 17.8 64 62 10.4 50.7
21:35 1023 30.21 852 25.16 17.7 63.9 62 10.4 50.8
21:40 1023 30.21 852 25.16 17.7 63.8 63 10.5 50.9
21:45 1023 30.21 852 25.16 17.5 63.5 62 10.1 50.2
21:50 1023 30.21 852 25.16 17.6 63.7 61 10 50
21:55 1023 30.21 852 25.16 17.7 63.9 59 9.7 49.4
22:00 1023 30.21 852 25.16 17.6 63.7 59 9.6 49.3
22:05 1023 30.21 852 25.16 17.7 63.8 59 9.6 49.3
22:10 1023 30.21 852 25.16 17.8 64 58 9.5 49.2
22:15 1023 30.21 852 25.16 17.8 64.1 58 9.5 49.2
22:20 1023 30.21 852 25.16 17.8 64.1 57 9.3 48.8
22:25 1023 30.21 852 25.16 18 64.3 56 9.2 48.5
22:30 1023 30.21 852 25.16 18.1 64.6 56 9.2 48.5
22:35 1023 30.21 852 25.16 18 64.4 57 9.3 48.8
22:40 1023 30.21 852 25.16 17.7 63.8 58 9.5 49
22:45 1023 30.21 852 25.16 17.4 63.3 59 9.5 49.1
22:50 1023 30.21 852 25.16 17.5 63.5 59 9.4 49
22:55 1023 30.21 852 25.16 17.4 63.4 59 9.4 49
23:00 1023 30.21 852 25.16 17.5 63.6 59 9.5 49.1
23:05 1023 30.21 852 25.16 17.5 63.5 60 9.7 49.5
23:10 1023 30.21 852 25.16 17.2 62.9 61 9.8 49.6
23:15 1023 30.21 852 25.16 17 62.7 61 9.4 49
23:20 1023 30.21 852 25.16 17.1 62.8 60 9.4 49
23:25 1022 30.18 852 25.16 17 62.6 61 9.5 49.1
23:30 1022 30.18 852 25.16 17 62.5 61 9.5 49.1
23:35 1022 30.18 852 25.16 16.9 62.4 61 9.4 48.9
23:40 1022 30.18 852 25.16 17 62.6 61 9.5 49
23:45 1022 30.18 852 25.16 16.9 62.4 61 9.4 48.9
23:50 1022 30.18 852 25.16 17.1 62.7 60 9.3 48.7
23:55 1022 30.18 852 25.16 17.1 62.7 60 9.4 49
24:00 1022 30.18 852 25.16 16.8 62.2 61 9.4 48.9